AHQ2001 EGLC-EDDF

Flight info

Callsign AHQ2001
Flight time 1h 7m
Altitude 33000
Route SOQQA M87 UMTUM UL9 KONAN UL607 SPI T180 NIVNU T847 IMCOM IMCOM1A
Aircraft A320/M-SDE3FGHIRWY/LB1

Departure

Time 2026-05-04 12:54
Airport London City Airport (EGLC)

Arrival

Time 2026-05-04 14:02
Airport Frankfurt Main Airport (EDDF)
Time Latitude Longitude Altitude Speed Heading
2026-05-04 12:42 51.50446 0.04582 26 ft 0 kts 195°
2026-05-04 12:47 51.50465 0.04594 26 ft 4 kts 228°
2026-05-04 12:48 51.50474 0.04629 27 ft 3 kts 272°
2026-05-04 12:48 51.50474 0.04641 28 ft 0 kts 273°
2026-05-04 12:50 51.50473 0.04641 28 ft 0 kts 273°
2026-05-04 12:52 51.50475 0.04594 27 ft 11 kts 273°
2026-05-04 12:52 51.50486 0.04467 25 ft 11 kts 303°
2026-05-04 12:52 51.50545 0.04450 26 ft 7 kts 39°
2026-05-04 12:52 51.50555 0.04491 27 ft 1 kts 86°
2026-05-04 12:53 51.50555 0.04493 27 ft 0 kts 89°
2026-05-04 12:54 51.50555 0.04545 28 ft 17 kts 92°
2026-05-04 12:54 51.50534 0.05205 28 ft 101 kts 93°
2026-05-04 12:54 51.50485 0.06731 151 ft 155 kts 92°
2026-05-04 12:54 51.50454 0.07831 733 ft 152 kts 91°
2026-05-04 12:55 51.50403 0.09532 1604 ft 153 kts 90°
2026-05-04 12:55 51.50567 0.11241 2015 ft 168 kts 67°
2026-05-04 12:55 51.51241 0.12906 2212 ft 191 kts 44°
2026-05-04 12:55 51.52407 0.14119 2560 ft 209 kts 24°
2026-05-04 12:56 51.53758 0.15107 2952 ft 217 kts 25°
2026-05-04 12:56 51.55015 0.16396 3000 ft 216 kts 47°
2026-05-04 12:56 51.55715 0.18572 3007 ft 231 kts 77°
2026-05-04 12:56 51.56014 0.21218 3020 ft 251 kts 79°
2026-05-04 12:57 51.56329 0.24021 3011 ft 256 kts 74°
2026-05-04 12:57 51.57004 0.26668 3006 ft 257 kts 65°
2026-05-04 12:57 51.57763 0.29276 3001 ft 259 kts 64°
2026-05-04 12:57 51.58533 0.31892 3001 ft 259 kts 64°
2026-05-04 12:58 51.59303 0.34506 3000 ft 259 kts 64°
2026-05-04 12:58 51.60067 0.37127 3001 ft 259 kts 66°
2026-05-04 12:58 51.60473 0.39977 3014 ft 261 kts 88°
2026-05-04 12:58 51.60263 0.42885 3658 ft 266 kts 100°
2026-05-04 12:59 51.59949 0.45855 4657 ft 268 kts 99°
2026-05-04 12:59 51.59652 0.48836 5504 ft 273 kts 100°
2026-05-04 12:59 51.59353 0.51867 6371 ft 276 kts 101°
2026-05-04 12:59 51.58726 0.54788 7159 ft 279 kts 121°
2026-05-04 13:00 51.57481 0.57169 7942 ft 281 kts 143°
2026-05-04 13:00 51.55769 0.58648 8737 ft 281 kts 165°
2026-05-04 13:00 51.53852 0.59236 9559 ft 282 kts 173°
2026-05-04 13:00 51.51899 0.59719 10300 ft 287 kts 173°
2026-05-04 13:01 51.49846 0.60225 10570 ft 310 kts 173°
2026-05-04 13:01 51.47652 0.60768 10960 ft 325 kts 173°
2026-05-04 13:01 51.45398 0.61331 11615 ft 331 kts 173°
2026-05-04 13:01 51.43128 0.62078 12317 ft 336 kts 163°
2026-05-04 13:02 51.40981 0.63620 13045 ft 342 kts 150°
2026-05-04 13:02 51.39079 0.65954 13770 ft 348 kts 137°
2026-05-04 13:02 51.37488 0.68905 14405 ft 352 kts 130°
2026-05-04 13:02 51.35946 0.71962 15054 ft 354 kts 130°
2026-05-04 13:03 51.34390 0.75033 15717 ft 356 kts 130°
2026-05-04 13:03 51.32822 0.78119 16370 ft 358 kts 130°
2026-05-04 13:03 51.31250 0.81206 17043 ft 359 kts 130°
2026-05-04 13:03 51.29665 0.84313 17694 ft 361 kts 130°
2026-05-04 13:04 51.28074 0.87433 18335 ft 364 kts 130°
2026-05-04 13:04 51.26466 0.90580 18870 ft 367 kts 131°
2026-05-04 13:04 51.24843 0.93746 19408 ft 370 kts 131°
2026-05-04 13:04 51.23203 0.96945 19907 ft 374 kts 131°
2026-05-04 13:05 51.21681 1.00341 20395 ft 380 kts 122°
2026-05-04 13:05 51.20561 1.04190 20893 ft 386 kts 111°
2026-05-04 13:05 51.19887 1.08361 21398 ft 391 kts 103°
2026-05-04 13:05 51.19338 1.12629 21901 ft 395 kts 103°
2026-05-04 13:06 51.18778 1.16933 22404 ft 398 kts 104°
2026-05-04 13:06 51.18206 1.21271 22895 ft 402 kts 104°
2026-05-04 13:06 51.17626 1.25639 23377 ft 405 kts 104°
2026-05-04 13:06 51.17040 1.30053 23808 ft 409 kts 104°
2026-05-04 13:07 51.16453 1.34494 24220 ft 411 kts 103°
2026-05-04 13:07 51.16109 1.39044 24626 ft 415 kts 96°
2026-05-04 13:07 51.15896 1.43641 25023 ft 417 kts 97°
2026-05-04 13:07 51.15678 1.48258 25432 ft 419 kts 97°
2026-05-04 13:08 51.15456 1.52887 25829 ft 421 kts 97°
2026-05-04 13:08 51.15228 1.57549 26209 ft 422 kts 97°
2026-05-04 13:08 51.14998 1.62221 26582 ft 424 kts 97°
2026-05-04 13:08 51.14766 1.66918 26952 ft 426 kts 97°
2026-05-04 13:09 51.14533 1.71626 27310 ft 428 kts 97°
2026-05-04 13:09 51.14297 1.76363 27682 ft 430 kts 98°
2026-05-04 13:09 51.14057 1.81115 28050 ft 432 kts 98°
2026-05-04 13:09 51.13812 1.85892 28390 ft 434 kts 98°
2026-05-04 13:10 51.13562 1.90684 28700 ft 436 kts 98°
2026-05-04 13:10 51.13307 1.95507 29009 ft 438 kts 98°
2026-05-04 13:10 51.13050 2.00350 29323 ft 440 kts 98°
2026-05-04 13:10 51.12797 2.05206 29642 ft 442 kts 98°
2026-05-04 13:11 51.12543 2.10093 29950 ft 443 kts 98°
2026-05-04 13:11 51.12283 2.14988 30219 ft 445 kts 99°
2026-05-04 13:11 51.12014 2.19901 30459 ft 447 kts 99°
2026-05-04 13:11 51.11742 2.24836 30688 ft 449 kts 99°
2026-05-04 13:12 51.11469 2.29796 30906 ft 451 kts 99°
2026-05-04 13:12 51.11197 2.34772 31115 ft 452 kts 99°
2026-05-04 13:12 51.10922 2.39772 31323 ft 454 kts 99°
2026-05-04 13:12 51.10646 2.44767 31624 ft 453 kts 99°
2026-05-04 13:13 51.10368 2.49752 31921 ft 453 kts 100°
2026-05-04 13:13 51.10084 2.54740 32213 ft 452 kts 100°
2026-05-04 13:13 51.09892 2.58042 32405 ft 452 kts 100°
2026-05-04 13:13 51.09594 2.63015 32698 ft 451 kts 102°
2026-05-04 13:14 51.08995 2.67874 32944 ft 445 kts 111°
2026-05-04 13:14 51.07319 2.77177 33015 ft 430 kts 111°
2026-05-04 13:15 51.05664 2.86272 33010 ft 427 kts 112°
2026-05-04 13:15 51.04001 2.95339 33025 ft 428 kts 112°
2026-05-04 13:16 51.02336 3.04412 33019 ft 428 kts 112°
2026-05-04 13:16 51.00671 3.13477 32996 ft 428 kts 112°
2026-05-04 13:17 50.99000 3.22470 32996 ft 427 kts 112°
2026-05-04 13:17 50.97317 3.31521 32960 ft 427 kts 112°
2026-05-04 13:18 50.95629 3.40562 32961 ft 428 kts 112°
2026-05-04 13:18 50.93927 3.49617 32963 ft 429 kts 112°
2026-05-04 13:19 50.92215 3.58662 32963 ft 429 kts 112°
2026-05-04 13:19 50.90500 3.67718 32967 ft 429 kts 112°
2026-05-04 13:20 50.88763 3.76761 32954 ft 429 kts 113°
2026-05-04 13:20 50.87005 3.85804 32957 ft 430 kts 113°
2026-05-04 13:21 50.85237 3.94850 32965 ft 431 kts 113°
2026-05-04 13:21 50.83471 4.03915 32971 ft 431 kts 113°
2026-05-04 13:22 50.81698 4.12978 32978 ft 431 kts 113°
2026-05-04 13:22 50.79910 4.22037 32971 ft 431 kts 113°
2026-05-04 13:23 50.78117 4.31070 32989 ft 430 kts 113°
2026-05-04 13:23 50.76325 4.40061 32994 ft 430 kts 114°
2026-05-04 13:24 50.74528 4.49047 32998 ft 429 kts 114°
2026-05-04 13:24 50.72724 4.58028 32991 ft 429 kts 114°
2026-05-04 13:25 50.70074 4.71524 32960 ft 430 kts 113°
2026-05-04 13:25 50.68341 4.80553 32964 ft 430 kts 113°
2026-05-04 13:26 50.66584 4.89574 32970 ft 431 kts 113°
2026-05-04 13:26 50.64787 4.98569 32973 ft 430 kts 114°
2026-05-04 13:27 50.62937 5.07527 32980 ft 430 kts 114°
2026-05-04 13:27 50.61073 5.16475 32951 ft 430 kts 114°
2026-05-04 13:28 50.59206 5.25432 32960 ft 431 kts 114°
2026-05-04 13:28 50.57339 5.34411 32965 ft 432 kts 114°
2026-05-04 13:29 50.55468 5.43395 32969 ft 432 kts 114°
2026-05-04 13:29 50.53585 5.52365 32972 ft 432 kts 114°
2026-05-04 13:30 50.51674 5.61394 32953 ft 433 kts 114°
2026-05-04 13:30 50.49882 5.70379 32961 ft 435 kts 112°
2026-05-04 13:31 50.48213 5.79574 32972 ft 435 kts 111°
2026-05-04 13:31 50.46558 5.88666 32981 ft 436 kts 112°
2026-05-04 13:32 50.44850 5.97776 32991 ft 435 kts 112°
2026-05-04 13:32 50.43092 6.06961 32414 ft 441 kts 112°
2026-05-04 13:33 50.42207 6.11578 31689 ft 442 kts 112°
2026-05-04 13:33 50.41336 6.16154 31225 ft 436 kts 112°
2026-05-04 13:33 50.40473 6.20694 30699 ft 432 kts 112°
2026-05-04 13:33 50.39618 6.25180 30170 ft 429 kts 112°
2026-05-04 13:34 50.38768 6.29619 29667 ft 423 kts 112°
2026-05-04 13:34 50.37923 6.34009 29164 ft 418 kts 112°
2026-05-04 13:34 50.37085 6.38343 28714 ft 413 kts 112°
2026-05-04 13:34 50.36382 6.42686 28270 ft 412 kts 104°
2026-05-04 13:35 50.36070 6.47143 27804 ft 410 kts 99°
2026-05-04 13:35 50.35543 6.55925 26951 ft 401 kts 100°
2026-05-04 13:35 50.35273 6.60259 26514 ft 398 kts 100°
2026-05-04 13:36 50.34999 6.64552 26079 ft 395 kts 100°
2026-05-04 13:36 50.34720 6.68817 25644 ft 392 kts 100°
2026-05-04 13:36 50.34443 6.73055 25192 ft 390 kts 100°
2026-05-04 13:36 50.34169 6.77264 24738 ft 388 kts 99°
2026-05-04 13:37 50.33902 6.81460 24272 ft 387 kts 99°
2026-05-04 13:37 50.33509 6.85592 23811 ft 381 kts 108°
2026-05-04 13:37 50.32649 6.89476 23311 ft 375 kts 118°
2026-05-04 13:37 50.31918 6.91921 22998 ft 373 kts 119°
2026-05-04 13:38 50.30456 6.96800 22391 ft 368 kts 119°
2026-05-04 13:38 50.29375 7.00412 21964 ft 369 kts 119°
2026-05-04 13:38 50.28262 7.04121 21466 ft 381 kts 119°
2026-05-04 13:38 50.27139 7.07879 20975 ft 381 kts 118°
2026-05-04 13:39 50.26023 7.11617 20477 ft 379 kts 118°
2026-05-04 13:39 50.24912 7.15338 19982 ft 377 kts 118°
2026-05-04 13:39 50.23804 7.19040 19483 ft 375 kts 118°
2026-05-04 13:39 50.22700 7.22716 19013 ft 373 kts 118°
2026-05-04 13:40 50.21597 7.26381 18512 ft 372 kts 118°
2026-05-04 13:40 50.20501 7.30022 18148 ft 367 kts 118°
2026-05-04 13:40 50.19429 7.33639 17517 ft 369 kts 116°
2026-05-04 13:40 50.18466 7.37313 17241 ft 362 kts 114°
2026-05-04 13:41 50.17594 7.40959 16840 ft 357 kts 113°
2026-05-04 13:41 50.16761 7.44597 16397 ft 354 kts 112°
2026-05-04 13:41 50.15946 7.48180 15721 ft 348 kts 112°
2026-05-04 13:42 50.14300 7.55256 14705 ft 346 kts 113°
2026-05-04 13:42 50.13453 7.58808 14247 ft 344 kts 113°
2026-05-04 13:42 50.12615 7.62284 13801 ft 341 kts 114°
2026-05-04 13:42 50.11782 7.65733 13320 ft 339 kts 114°
2026-05-04 13:43 50.10823 7.69050 12885 ft 333 kts 124°
2026-05-04 13:43 50.09527 7.72005 12716 ft 332 kts 128°
2026-05-04 13:43 50.08229 7.74914 12484 ft 330 kts 128°
2026-05-04 13:43 50.06914 7.77881 12268 ft 328 kts 128°
2026-05-04 13:44 50.05623 7.80800 12033 ft 327 kts 127°
2026-05-04 13:44 50.04351 7.83666 11827 ft 325 kts 128°
2026-05-04 13:44 50.03065 7.86556 11610 ft 325 kts 128°
2026-05-04 13:44 50.01781 7.89436 11384 ft 323 kts 128°
2026-05-04 13:45 50.00647 7.92453 11171 ft 326 kts 115°
2026-05-04 13:45 50.00167 7.95901 11006 ft 331 kts 95°
2026-05-04 13:45 50.00458 7.99464 10989 ft 337 kts 76°
2026-05-04 13:45 50.01265 8.02900 10991 ft 339 kts 72°
2026-05-04 13:46 50.02102 8.06332 10990 ft 339 kts 72°
2026-05-04 13:46 50.02942 8.09758 10999 ft 339 kts 72°
2026-05-04 13:46 50.03780 8.13182 11005 ft 339 kts 72°
2026-05-04 13:46 50.04618 8.16617 11003 ft 339 kts 72°
2026-05-04 13:47 50.05452 8.20046 11003 ft 339 kts 72°
2026-05-04 13:47 50.06286 8.23481 10998 ft 339 kts 72°
2026-05-04 13:47 50.07119 8.26914 10996 ft 338 kts 72°
2026-05-04 13:47 50.07944 8.30329 10999 ft 337 kts 72°
2026-05-04 13:48 50.08768 8.33745 10998 ft 337 kts 72°
2026-05-04 13:48 50.09590 8.37157 10999 ft 337 kts 72°
2026-05-04 13:48 50.10411 8.40576 11003 ft 337 kts 72°
2026-05-04 13:48 50.11231 8.43988 11001 ft 337 kts 72°
2026-05-04 13:49 50.12054 8.47411 11001 ft 338 kts 71°
2026-05-04 13:49 50.12878 8.50843 11001 ft 338 kts 71°
2026-05-04 13:49 50.13700 8.54276 11000 ft 338 kts 72°
2026-05-04 13:49 50.14521 8.57715 10918 ft 339 kts 72°
2026-05-04 13:50 50.15348 8.61193 10203 ft 342 kts 72°
2026-05-04 13:50 50.16155 8.64603 9658 ft 330 kts 72°
2026-05-04 13:50 50.16927 8.67858 9469 ft 310 kts 72°
2026-05-04 13:50 50.17662 8.70954 9029 ft 300 kts 71°
2026-05-04 13:51 50.18377 8.73974 8631 ft 291 kts 71°
2026-05-04 13:51 50.19089 8.76982 8418 ft 294 kts 71°
2026-05-04 13:51 50.19800 8.79994 7907 ft 292 kts 71°
2026-05-04 13:51 50.20498 8.82963 7404 ft 290 kts 71°
2026-05-04 13:52 50.21650 8.87864 6596 ft 291 kts 70°
2026-05-04 13:52 50.22349 8.90835 6122 ft 291 kts 70°
2026-05-04 13:52 50.23037 8.93766 5993 ft 286 kts 70°
2026-05-04 13:53 50.23721 8.96680 5858 ft 286 kts 70°
2026-05-04 13:53 50.24219 8.99664 5724 ft 284 kts 89°
2026-05-04 13:53 50.23881 9.02653 5597 ft 280 kts 116°
2026-05-04 13:54 50.21062 9.06256 5342 ft 259 kts 169°
2026-05-04 13:54 50.19339 9.06784 5218 ft 245 kts 173°
2026-05-04 13:54 50.16106 9.07579 4962 ft 229 kts 178°
2026-05-04 13:55 50.14612 9.07094 4830 ft 218 kts 217°
2026-05-04 13:55 50.13853 9.02902 4586 ft 218 kts 280°
2026-05-04 13:55 50.13889 9.00577 4454 ft 216 kts 253°
2026-05-04 13:56 50.13393 8.98367 4324 ft 213 kts 249°
2026-05-04 13:56 50.12876 8.96216 4199 ft 215 kts 249°
2026-05-04 13:56 50.11842 8.91823 3996 ft 217 kts 249°
2026-05-04 13:57 50.11319 8.89592 3998 ft 217 kts 250°
2026-05-04 13:57 50.10808 8.87416 3992 ft 216 kts 250°
2026-05-04 13:58 50.09324 8.81114 3384 ft 191 kts 250°
2026-05-04 13:58 50.08455 8.77428 2855 ft 170 kts 250°
2026-05-04 13:58 50.08049 8.75711 2647 ft 167 kts 249°
2026-05-04 13:59 50.07654 8.74042 2420 ft 166 kts 251°
2026-05-04 13:59 50.07258 8.72368 2199 ft 165 kts 251°
2026-05-04 13:59 50.06558 8.69036 1753 ft 160 kts 265°
2026-05-04 14:00 50.06615 8.67401 1592 ft 141 kts 262°
2026-05-04 14:00 50.05927 8.64615 1198 ft 136 kts 253°
2026-05-04 14:00 50.05593 8.63189 987 ft 145 kts 249°
2026-05-04 14:01 50.05228 8.61710 803 ft 148 kts 249°
2026-05-04 14:01 50.04873 8.60195 644 ft 149 kts 248°
2026-05-04 14:01 50.04178 8.57311 370 ft 123 kts 250°
2026-05-04 14:02 50.03945 8.56324 356 ft 72 kts 249°
2026-05-04 14:02 50.03824 8.55816 350 ft 32 kts 249°
2026-05-04 14:02 50.03786 8.55577 348 ft 16 kts 294°
2026-05-04 14:02 50.03864 8.55501 352 ft 4 kts 341°
2026-05-04 14:03 50.03867 8.55499 349 ft 0 kts 340°
2026-05-04 14:04 50.03955 8.55560 356 ft 18 kts 72°
2026-05-04 14:04 50.03996 8.55732 358 ft 16 kts 70°
2026-05-04 14:04 50.04040 8.55918 354 ft 22 kts 69°
2026-05-04 14:05 50.04156 8.56399 358 ft 25 kts 70°
2026-05-04 14:05 50.04215 8.56651 359 ft 25 kts 69°
2026-05-04 14:05 50.04274 8.56901 362 ft 25 kts 69°
2026-05-04 14:06 50.04338 8.57163 361 ft 26 kts 69°
2026-05-04 14:06 50.04402 8.57433 365 ft 27 kts 70°
2026-05-04 14:06 50.04469 8.57712 366 ft 28 kts 70°
2026-05-04 14:06 50.04526 8.57946 364 ft 5 kts 69°
2026-05-04 14:07 50.04526 8.57947 364 ft 0 kts 69°